Regional Weather Roundup
Issued by NWS

Home | Current Version | Previous Version | Text Only | Print | Product List | Glossary On
Versions: 1 2 3 4 5 6 7 8 9 10 11 12 13 14 15 16 17 18 19 20 21 22 23 24 25 26 27 28 29 30 31 32 33 34 35 36 37 38 39 40 41 42 43 44 45 46 47 48 49 50
000
ASUS43 KLSX 030807
RWRMO

WEATHER SUMMARY FOR MISSOURI
NATIONAL WEATHER SERVICE SPRINGFIELD MO
300 AM CDT SUN MAY 03 2015

NOTE: "FAIR" INDICATES FEW OR NO CLOUDS BELOW 12,000 FEET WITH NO
       SIGNIFICANT WEATHER AND/OR OBSTRUCTIONS TO VISIBILITY.
       CURRENT SKY AND/OR WEATHER CONDITIONS ARE NOT AVAILABLE FOR
       CHILLICOTHE AND FARMINGTON.

MOZ001>031-035>038-043-044-053-054-030900-
...NORTHERN AND WESTERN MISSOURI...

CITY           SKY/WX    TMP DP  RH WIND       PRES   REMARKS
KANSAS CTY INT CLOUDY    66  52  60 S21       29.85F
KANSAS C DTWN  CLOUDY    68  52  56 S14       29.86F
LEE`S SUMMIT   CLOUDY    64  52  64 S13       29.89F
ST JOSEPH      CLOUDY    66  53  63 S13       29.83F
CHILLICOTHE      N/A     58  52  80 SE5       29.90F
KIRKSVILLE     MOCLDY    56  50  80 S7        29.92F

$$
MOZ066>068-077>081-088>096-101>105-030900-
...SOUTHWEST MISSOURI...

CITY           SKY/WX    TMP DP  RH WIND       PRES   REMARKS
SPRINGFIELD    PTCLDY    59  49  69 S13       29.97F
JOPLIN         PTCLDY    63  50  62 S12       29.95F

$$
MOZ032>034-039>042-045>050-055>058-069>072-030900-
...CENTRAL MISSOURI...

CITY           SKY/WX    TMP DP  RH WIND       PRES   REMARKS
COLUMBIA       CLOUDY    61  46  57 S9        29.96S
JEFFERSON CITY CLOUDY    63  44  50 E3        29.96F
ROLLA          MOCLDY    63  44  50 S9        29.98S
SEDALIA        CLOUDY    60  51  72 S8        29.94F
WHITEMAN AFB   CLOUDY    60  52  75 S6        29.91F
WARRENSBURG    CLOUDY    63  50  63 S7        29.91F
OSAGE BEACH    CLOUDY    61  45  55 S7        29.97S

$$
MOZ051-052-059>065-030900-
...EAST CENTRAL MISSOURI...

CITY           SKY/WX    TMP DP  RH WIND       PRES   REMARKS
ST LOUIS INTL  CLOUDY    67  43  41 S5        30.00S
SPIRIT OF STL  CLOUDY    60  49  66 CALM      29.98F
ST CHARLES     CLOUDY    63  48  58 SE6       29.98F

$$
MOZ072>076-082>087-097>100-106>115-030900-
...SOUTH CENTRAL AND SOUTHEAST MISSOURI...

CITY           SKY/WX    TMP DP  RH WIND       PRES   REMARKS
CAPE GIRARDEAU PTCLDY    58  47  66 W3        30.04R
FARMINGTON     MOCLDY    61  41  48 S5        30.06S
POPLAR BLUFF   MOCLDY    57  53  86 CALM      30.03R
WEST PLAINS    PTCLDY    60  43  53 S5        30.04S

$$


USA.gov is the U.S. government's official web portal to all federal, state and local government web resources and services.